Station History

Weather Underground - logo

Station Historical Data
Daily Summary for August 18, 2017 Units:  English    Metric   Both
« Previous Day
Next Day »
Daily Weekly Monthly Yearly Custom
  High: Low: Average:
Temperature: 96.9 °F 68.4 °F 83 °F
Dew Point: 70.3 °F 63.9 °F 66.4 °F
Humidity: 87 % 35 % 61 %
Wind Speed: 5.0 mph 0.0 mph 1.3 mph
Wind Gust: 5.0 mph - -
Wind:- - WSW
Pressure: 29.91 in 29.77 in -
Precipitation: 0.00 in    
Historical Graphs
 
 
Tabular Data for August 18, 2017
Time Temperature Dew Point Pressure Wind Wind Speed Wind Gust Humidity Rainfall Rate (Hourly)
00:02 76.2 °F 66.9 °F 29.88 in Calm     73 % 0.00 in
00:07 76.2 °F 67.3 °F 29.88 in Calm     74 % 0.00 in
00:12 76.0 °F 67.1 °F 29.88 in Calm     74 % 0.00 in
00:18 75.8 °F 66.9 °F 29.88 in Calm     74 % 0.00 in
00:23 75.6 °F 67.1 °F 29.88 in Calm     75 % 0.00 in
00:28 75.4 °F 66.9 °F 29.88 in Calm     75 % 0.00 in
00:33 75.3 °F 66.8 °F 29.88 in Calm     75 % 0.00 in
00:34 75.3 °F 66.8 °F 29.88 in Calm     75 % 0.00 in
00:39 75.4 °F 67.3 °F 29.88 in Calm     76 % 0.00 in
00:44 75.4 °F 66.9 °F 29.87 in Calm     75 % 0.00 in
00:49 75.4 °F 67.7 °F 29.87 in Calm     77 % 0.00 in
00:54 75.3 °F 67.2 °F 29.87 in Calm     76 % 0.00 in
00:59 75.2 °F 67.1 °F 29.87 in Calm     76 % 0.00 in
01:05 75.1 °F 66.6 °F 29.87 in Calm     75 % 0.00 in
01:10 74.9 °F 66.4 °F 29.87 in Calm     75 % 0.00 in
01:15 74.8 °F 66.3 °F 29.87 in Calm     75 % 0.00 in
01:20 74.6 °F 66.1 °F 29.87 in Calm     75 % 0.00 in
01:25 74.5 °F 66.4 °F 29.87 in Calm     76 % 0.00 in
01:30 74.5 °F 66.8 °F 29.87 in Calm     77 % 0.00 in
01:35 74.3 °F 66.2 °F 29.87 in Calm     76 % 0.00 in
01:40 74.2 °F 66.1 °F 29.87 in Calm     76 % 0.00 in
01:45 74.2 °F 66.1 °F 29.87 in Calm     76 % 0.00 in
01:50 74.2 °F 66.1 °F 29.87 in Calm     76 % 0.00 in
01:55 74.1 °F 66.0 °F 29.87 in Calm     76 % 0.00 in
02:00 73.9 °F 66.2 °F 29.87 in Calm     77 % 0.00 in
02:05 73.7 °F 66.4 °F 29.87 in Calm     78 % 0.00 in
02:10 73.5 °F 66.2 °F 29.87 in Calm     78 % 0.00 in
02:15 73.3 °F 66.0 °F 29.87 in Calm     78 % 0.00 in
02:20 73.3 °F 66.0 °F 29.87 in Calm     78 % 0.00 in
02:25 73.3 °F 65.7 °F 29.87 in Calm     77 % 0.00 in
02:30 73.2 °F 65.6 °F 29.87 in SE 1.2 mph 1.2 mph 77 % 0.00 in
02:35 73.2 °F 65.6 °F 29.87 in Calm     77 % 0.00 in
02:40 73.2 °F 65.6 °F 29.87 in Calm     77 % 0.00 in
02:45 73.1 °F 65.8 °F 29.87 in Calm     78 % 0.00 in
02:50 73.1 °F 65.5 °F 29.87 in Calm     77 % 0.00 in
02:55 73.0 °F 65.7 °F 29.87 in Calm     78 % 0.00 in
03:00 72.9 °F 65.6 °F 29.86 in Calm     78 % 0.00 in
03:05 72.8 °F 65.5 °F 29.86 in Calm     78 % 0.00 in
03:10 72.7 °F 65.4 °F 29.86 in Calm   0.1 mph 78 % 0.00 in
03:15 72.6 °F 65.3 °F 29.86 in Calm     78 % 0.00 in
03:20 72.5 °F 65.2 °F 29.86 in Calm     78 % 0.00 in
03:25 72.4 °F 65.2 °F 29.86 in Calm     78 % 0.00 in
03:30 72.3 °F 65.4 °F 29.86 in Calm     79 % 0.00 in
03:35 72.1 °F 65.2 °F 29.86 in Calm     79 % 0.00 in
03:40 72.0 °F 65.1 °F 29.86 in Calm     79 % 0.00 in
03:45 72.0 °F 65.1 °F 29.86 in Calm     79 % 0.00 in
03:50 71.9 °F 65.0 °F 29.86 in Calm     79 % 0.00 in
03:55 71.8 °F 64.9 °F 29.86 in Calm     79 % 0.00 in
04:01 71.8 °F 64.9 °F 29.86 in Calm     79 % 0.00 in
04:06 71.8 °F 64.9 °F 29.86 in Calm     79 % 0.00 in
04:11 71.6 °F 65.1 °F 29.86 in Calm     80 % 0.00 in
04:16 71.5 °F 65.0 °F 29.86 in Calm     80 % 0.00 in
04:21 71.5 °F 65.0 °F 29.86 in Calm     80 % 0.00 in
04:26 71.3 °F 64.8 °F 29.86 in Calm     80 % 0.00 in
04:31 71.0 °F 64.9 °F 29.86 in Calm     81 % 0.00 in
04:36 70.9 °F 64.8 °F 29.86 in Calm     81 % 0.00 in
04:41 70.8 °F 65.0 °F 29.87 in Calm     82 % 0.00 in
04:46 70.6 °F 64.8 °F 29.87 in Calm     82 % 0.00 in
04:51 70.5 °F 64.7 °F 29.87 in Calm     82 % 0.00 in
04:56 70.2 °F 64.8 °F 29.87 in Calm     83 % 0.00 in
05:01 70.0 °F 64.6 °F 29.87 in Calm     83 % 0.00 in
05:06 69.9 °F 64.8 °F 29.87 in Calm     84 % 0.00 in
05:11 69.7 °F 64.6 °F 29.87 in Calm     84 % 0.00 in
05:16 69.7 °F 64.6 °F 29.87 in Calm     84 % 0.00 in
05:21 69.6 °F 64.5 °F 29.87 in SE 1.2 mph 1.2 mph 84 % 0.00 in
05:26 69.4 °F 64.4 °F 29.87 in SE 1.2 mph   84 % 0.00 in
05:31 69.3 °F 64.6 °F 29.87 in Calm     85 % 0.00 in
05:33 69.3 °F 64.6 °F 29.87 in Calm     85 % 0.00 in
05:38 69.1 °F 64.7 °F 29.88 in SE 1.2 mph 1.2 mph 86 % 0.00 in
05:43 69.0 °F 64.6 °F 29.88 in Calm     86 % 0.00 in
05:48 68.9 °F 64.5 °F 29.88 in Calm     86 % 0.00 in
05:53 68.8 °F 64.4 °F 29.88 in Calm     86 % 0.00 in
05:58 68.7 °F 64.3 °F 29.88 in Calm     86 % 0.00 in
06:03 68.6 °F 64.2 °F 29.88 in Calm     86 % 0.00 in
06:08 68.6 °F 64.6 °F 29.88 in Calm     87 % 0.00 in
06:13 68.5 °F 64.5 °F 29.88 in Calm     87 % 0.00 in
06:18 68.4 °F 64.4 °F 29.89 in Calm     87 % 0.00 in
06:23 68.4 °F 64.4 °F 29.89 in Calm     87 % 0.00 in
06:25 68.4 °F 64.4 °F 29.89 in Calm     87 % 0.00 in
06:30 68.5 °F 64.5 °F 29.89 in Calm     87 % 0.00 in
06:35 68.5 °F 64.5 °F 29.89 in Calm     87 % 0.00 in
06:40 68.5 °F 64.5 °F 29.89 in Calm     87 % 0.00 in
06:45 68.6 °F 64.6 °F 29.89 in Calm     87 % 0.00 in
06:50 68.7 °F 64.3 °F 29.89 in Calm     86 % 0.00 in
06:55 69.0 °F 64.6 °F 29.90 in Calm     86 % 0.00 in
07:00 69.1 °F 64.7 °F 29.90 in Calm     86 % 0.00 in
07:05 69.2 °F 64.5 °F 29.90 in Calm     85 % 0.00 in
07:10 69.5 °F 64.8 °F 29.90 in Calm     85 % 0.00 in
07:15 69.7 °F 65.0 °F 29.90 in Calm     85 % 0.00 in
07:20 70.0 °F 65.3 °F 29.90 in Calm     85 % 0.00 in
07:25 70.4 °F 65.3 °F 29.90 in SE 1.2 mph   84 % 0.00 in
07:30 70.8 °F 65.7 °F 29.90 in Calm     84 % 0.00 in
07:35 71.4 °F 65.6 °F 29.90 in SE 1.2 mph 1.2 mph 82 % 0.00 in
07:40 72.4 °F 65.9 °F 29.90 in SSE 1.2 mph   80 % 0.00 in
07:45 73.3 °F 66.0 °F 29.91 in SE 2.3 mph 2.3 mph 78 % 0.00 in
07:50 74.0 °F 66.3 °F 29.91 in SE 1.2 mph   77 % 0.00 in
07:55 74.6 °F 66.5 °F 29.91 in Calm   0.1 mph 76 % 0.00 in
08:00 75.1 °F 66.2 °F 29.91 in SE 2.3 mph 2.3 mph 74 % 0.00 in
08:05 75.7 °F 66.8 °F 29.91 in SSW 1.2 mph 1.2 mph 74 % 0.00 in
08:10 76.5 °F 67.2 °F 29.91 in South 1.2 mph   73 % 0.00 in
08:15 77.2 °F 67.1 °F 29.91 in Calm   0.1 mph 71 % 0.00 in
08:20 78.1 °F 67.5 °F 29.91 in East 2.0 mph 2.0 mph 70 % 0.00 in
08:25 78.1 °F 66.7 °F 29.91 in South 1.0 mph 1.2 mph 68 % 0.00 in
08:30 78.6 °F 67.2 °F 29.91 in SE 2.3 mph 2.3 mph 68 % 0.00 in
08:35 79.0 °F 66.7 °F 29.91 in ESE 2.3 mph 2.3 mph 66 % 0.00 in
08:37 79.0 °F 67.1 °F 29.91 in SSE 1.2 mph 1.2 mph 67 % 0.00 in
08:42 79.3 °F 67.0 °F 29.91 in SSE 2.3 mph 2.3 mph 66 % 0.00 in
08:48 79.5 °F 67.1 °F 29.91 in SSW 3.5 mph 3.5 mph 66 % 0.00 in
08:53 79.7 °F 66.4 °F 29.91 in SSE 3.5 mph 3.5 mph 64 % 0.00 in
08:58 80.5 °F 66.7 °F 29.91 in ESE 3.5 mph 3.5 mph 63 % 0.00 in
09:03 80.9 °F 67.1 °F 29.91 in East 3.5 mph 3.5 mph 63 % 0.00 in
09:08 81.3 °F 66.6 °F 29.91 in SSW 3.5 mph 3.5 mph 61 % 0.00 in
09:13 81.6 °F 66.8 °F 29.91 in NE 3.0 mph 3.0 mph 61 % 0.00 in
09:18 81.7 °F 66.9 °F 29.91 in SE 2.3 mph 2.3 mph 61 % 0.00 in
09:23 82.1 °F 66.8 °F 29.91 in South 2.3 mph 2.3 mph 60 % 0.00 in
09:28 82.5 °F 67.2 °F 29.91 in South 3.5 mph 3.5 mph 60 % 0.00 in
09:33 82.8 °F 67.0 °F 29.91 in South 3.5 mph 3.5 mph 59 % 0.00 in
09:38 83.2 °F 67.9 °F 29.91 in West 2.3 mph 2.3 mph 60 % 0.00 in
09:43 83.5 °F 67.2 °F 29.91 in SE 3.5 mph 3.5 mph 58 % 0.00 in
09:48 83.8 °F 67.4 °F 29.90 in SE 2.3 mph 2.3 mph 58 % 0.00 in
09:53 84.3 °F 68.4 °F 29.90 in SSE 2.3 mph 2.3 mph 59 % 0.00 in
09:58 84.7 °F 67.8 °F 29.90 in SW 3.5 mph 3.5 mph 57 % 0.00 in
10:03 85.0 °F 68.6 °F 29.90 in SSE 2.3 mph 2.3 mph 58 % 0.00 in
10:08 85.2 °F 67.7 °F 29.90 in SE 3.5 mph 3.5 mph 56 % 0.00 in
10:13 85.2 °F 67.7 °F 29.90 in SSE 3.5 mph 3.5 mph 56 % 0.00 in
10:18 85.6 °F 68.6 °F 29.90 in South 2.3 mph 2.3 mph 57 % 0.00 in
10:23 85.8 °F 68.8 °F 29.90 in SE 3.5 mph 3.5 mph 57 % 0.00 in
10:28 86.3 °F 69.3 °F 29.90 in SE 2.3 mph 2.3 mph 57 % 0.00 in
10:33 86.9 °F 68.8 °F 29.90 in ENE 3.5 mph 3.5 mph 55 % 0.00 in
10:38 87.1 °F 69.0 °F 29.90 in SE 2.3 mph 2.3 mph 55 % 0.00 in
10:43 87.7 °F 69.0 °F 29.90 in South 2.3 mph 2.3 mph 54 % 0.00 in
10:48 87.8 °F 69.1 °F 29.90 in North 2.3 mph 2.3 mph 54 % 0.00 in
10:53 87.9 °F 67.5 °F 29.90 in South 2.3 mph 2.3 mph 51 % 0.00 in
10:58 88.3 °F 67.3 °F 29.90 in SE 1.2 mph 1.2 mph 50 % 0.00 in
11:03 88.6 °F 69.3 °F 29.90 in SSE 2.3 mph 2.3 mph 53 % 0.00 in
11:08 89.1 °F 68.6 °F 29.90 in SE 3.5 mph 3.5 mph 51 % 0.00 in
11:13 89.5 °F 68.4 °F 29.90 in SE 2.3 mph 2.3 mph 50 % 0.00 in
11:18 89.6 °F 68.5 °F 29.89 in NNW 2.3 mph 2.3 mph 50 % 0.00 in
11:23 90.1 °F 67.8 °F 29.89 in NW 2.3 mph 2.3 mph 48 % 0.00 in
11:28 89.6 °F 67.9 °F 29.89 in NW 3.5 mph 3.5 mph 49 % 0.00 in
11:33 89.8 °F 68.1 °F 29.89 in WNW 2.3 mph 2.3 mph 49 % 0.00 in
11:38 90.0 °F 67.7 °F 29.89 in West 2.3 mph 2.3 mph 48 % 0.00 in
11:43 89.9 °F 68.2 °F 29.89 in North 3.5 mph 3.5 mph 49 % 0.00 in
11:48 89.9 °F 68.2 °F 29.89 in SE 1.2 mph 1.2 mph 49 % 0.00 in
11:53 90.1 °F 67.2 °F 29.89 in WNW 3.5 mph 3.5 mph 47 % 0.00 in
11:58 90.4 °F 69.2 °F 29.89 in WNW 1.2 mph 1.2 mph 50 % 0.00 in
12:03 90.9 °F 67.9 °F 29.88 in WNW 3.0 mph 3.0 mph 47 % 0.00 in
12:08 90.6 °F 67.0 °F 29.88 in NE 2.3 mph 2.3 mph 46 % 0.00 in
12:13 90.8 °F 66.5 °F 29.88 in NNW 1.2 mph 1.2 mph 45 % 0.00 in
12:18 91.6 °F 67.3 °F 29.88 in SSE 1.2 mph 1.2 mph 45 % 0.00 in
12:23 91.9 °F 67.5 °F 29.87 in NW 1.2 mph 1.2 mph 45 % 0.00 in
12:28 91.9 °F 65.5 °F 29.87 in East 3.5 mph 3.5 mph 42 % 0.00 in
12:33 91.8 °F 66.1 °F 29.87 in West 3.5 mph 3.5 mph 43 % 0.00 in
12:38 92.5 °F 69.3 °F 29.87 in SE 2.3 mph 2.3 mph 47 % 0.00 in
12:43 93.1 °F 68.6 °F 29.87 in East 2.3 mph 2.3 mph 45 % 0.00 in
12:48 93.1 °F 66.6 °F 29.87 in NNW 3.5 mph 3.5 mph 42 % 0.00 in
12:53 93.4 °F 66.2 °F 29.87 in North 2.3 mph 2.3 mph 41 % 0.00 in
12:58 93.3 °F 65.4 °F 29.86 in WNW 2.0 mph 2.0 mph 40 % 0.00 in
13:03 93.2 °F 66.7 °F 29.86 in NNW 1.2 mph 1.2 mph 42 % 0.00 in
13:08 93.7 °F 67.1 °F 29.86 in NNW 2.3 mph 2.3 mph 42 % 0.00 in
13:13 94.1 °F 66.8 °F 29.86 in WNW 4.6 mph 4.6 mph 41 % 0.00 in
13:18 93.5 °F 66.3 °F 29.86 in ESE 2.3 mph 2.3 mph 41 % 0.00 in
13:23 93.8 °F 67.2 °F 29.86 in SSE 2.3 mph 2.3 mph 42 % 0.00 in
13:28 94.5 °F 67.9 °F 29.86 in West 2.3 mph 2.3 mph 42 % 0.00 in
13:33 94.9 °F 66.8 °F 29.86 in NNW 3.5 mph 3.5 mph 40 % 0.00 in
13:38 95.0 °F 66.9 °F 29.86 in WNW 1.2 mph 1.2 mph 40 % 0.00 in
13:43 95.3 °F 65.7 °F 29.85 in NW 3.5 mph 3.5 mph 38 % 0.00 in
13:48 95.8 °F 66.9 °F 29.85 in NW 3.5 mph 3.5 mph 39 % 0.00 in
13:53 95.2 °F 66.3 °F 29.85 in NW 3.5 mph 3.5 mph 39 % 0.00 in
13:58 95.2 °F 67.1 °F 29.85 in NW 2.3 mph   40 % 0.00 in
14:03 95.5 °F 66.6 °F 29.85 in NW 3.5 mph 3.5 mph 39 % 0.00 in
14:08 95.4 °F 65.8 °F 29.84 in NW 2.3 mph 2.3 mph 38 % 0.00 in
14:13 95.9 °F 67.0 °F 29.84 in West 3.5 mph 3.5 mph 39 % 0.00 in
14:18 96.2 °F 66.5 °F 29.84 in WSW 3.5 mph 3.5 mph 38 % 0.00 in
14:23 96.1 °F 67.1 °F 29.84 in NW 3.5 mph 3.5 mph 39 % 0.00 in
14:28 95.7 °F 65.3 °F 29.84 in ESE 3.5 mph 3.5 mph 37 % 0.00 in
14:33 95.6 °F 66.7 °F 29.83 in NW 4.6 mph 4.6 mph 39 % 0.00 in
14:38 95.2 °F 66.3 °F 29.83 in NW 3.5 mph 3.5 mph 39 % 0.00 in
14:43 95.4 °F 65.8 °F 29.83 in NW 2.3 mph 2.3 mph 38 % 0.00 in
14:48 95.7 °F 66.8 °F 29.83 in NNE 5.0 mph 5.0 mph 39 % 0.00 in
14:53 95.9 °F 66.2 °F 29.83 in West 4.6 mph 4.6 mph 38 % 0.00 in
14:58 95.9 °F 64.7 °F 29.83 in SSW 3.5 mph 3.5 mph 36 % 0.00 in
15:03 96.2 °F 65.7 °F 29.82 in WNW 2.3 mph 2.3 mph 37 % 0.00 in
15:08 96.0 °F 65.5 °F 29.82 in NW 4.6 mph 4.6 mph 37 % 0.00 in
15:13 95.4 °F 65.0 °F 29.82 in SW 3.5 mph 3.5 mph 37 % 0.00 in
15:18 95.8 °F 66.1 °F 29.82 in WNW 3.5 mph 3.5 mph 38 % 0.00 in
15:23 95.9 °F 65.4 °F 29.81 in WNW 3.5 mph 3.5 mph 37 % 0.00 in
15:28 96.1 °F 64.8 °F 29.82 in NW 2.3 mph 2.3 mph 36 % 0.00 in
15:33 96.1 °F 64.8 °F 29.81 in WNW 3.0 mph 3.0 mph 36 % 0.00 in
15:38 96.0 °F 65.5 °F 29.81 in NW 3.5 mph 3.5 mph 37 % 0.00 in
15:44 95.8 °F 65.4 °F 29.81 in NNW 3.5 mph 3.5 mph 37 % 0.00 in
15:49 95.9 °F 65.4 °F 29.81 in North 2.3 mph 2.3 mph 37 % 0.00 in
15:54 96.0 °F 64.7 °F 29.81 in West 3.5 mph 3.5 mph 36 % 0.00 in
15:59 96.3 °F 65.0 °F 29.80 in ENE 2.3 mph 2.3 mph 36 % 0.00 in
16:04 96.6 °F 65.3 °F 29.80 in NW 3.5 mph 3.5 mph 36 % 0.00 in
16:09 96.4 °F 64.3 °F 29.80 in NW 3.5 mph 3.5 mph 35 % 0.00 in
16:14 96.4 °F 65.1 °F 29.80 in WNW 3.5 mph 3.5 mph 36 % 0.00 in
16:19 96.6 °F 65.3 °F 29.80 in NW 4.6 mph 4.6 mph 36 % 0.00 in
16:24 96.8 °F 66.2 °F 29.80 in NNW 2.3 mph 2.3 mph 37 % 0.00 in
16:29 96.6 °F 65.3 °F 29.79 in NW 3.5 mph 3.5 mph 36 % 0.00 in
16:34 96.6 °F 66.1 °F 29.79 in NW 2.3 mph 2.3 mph 37 % 0.00 in
16:39 96.8 °F 65.4 °F 29.79 in NNW 2.3 mph 2.3 mph 36 % 0.00 in
16:44 96.7 °F 64.5 °F 29.79 in North 2.3 mph 2.3 mph 35 % 0.00 in
16:49 96.5 °F 65.2 °F 29.79 in NW 2.0 mph 2.0 mph 36 % 0.00 in
16:54 96.8 °F 64.6 °F 29.79 in NW 2.3 mph 2.3 mph 35 % 0.00 in
16:59 96.7 °F 65.4 °F 29.79 in NW 2.3 mph 2.3 mph 36 % 0.00 in
17:04 96.6 °F 65.3 °F 29.79 in NW 3.5 mph 3.5 mph 36 % 0.00 in
17:09 96.8 °F 65.4 °F 29.79 in North 2.3 mph 2.3 mph 36 % 0.00 in
17:14 96.8 °F 64.6 °F 29.78 in WNW 3.5 mph 3.5 mph 35 % 0.00 in
17:19 96.9 °F 64.7 °F 29.79 in NW 2.3 mph 2.3 mph 35 % 0.00 in
17:24 96.3 °F 64.2 °F 29.79 in NW 2.3 mph 2.3 mph 35 % 0.00 in
17:29 96.0 °F 63.9 °F 29.79 in NNW 3.5 mph 3.5 mph 35 % 0.00 in
17:34 95.5 °F 65.1 °F 29.79 in NW 2.3 mph 2.3 mph 37 % 0.00 in
17:39 95.5 °F 64.3 °F 29.79 in NW 3.5 mph 3.5 mph 36 % 0.00 in
17:44 95.2 °F 64.8 °F 29.79 in NW 2.3 mph 2.3 mph 37 % 0.00 in
17:49 95.2 °F 64.8 °F 29.78 in NW 3.5 mph 3.5 mph 37 % 0.00 in
17:54 95.0 °F 65.4 °F 29.79 in NW 3.5 mph 3.5 mph 38 % 0.00 in
17:59 94.5 °F 65.7 °F 29.78 in NNW 2.3 mph 2.3 mph 39 % 0.00 in
18:04 94.1 °F 65.4 °F 29.78 in WNW 2.3 mph 2.3 mph 39 % 0.00 in
18:09 93.8 °F 65.1 °F 29.78 in NW 1.2 mph 1.2 mph 39 % 0.00 in
18:14 93.5 °F 65.6 °F 29.78 in NW 1.2 mph   40 % 0.00 in
18:19 93.1 °F 65.2 °F 29.78 in NW 1.2 mph 1.2 mph 40 % 0.00 in
18:24 92.7 °F 65.6 °F 29.78 in Calm     41 % 0.00 in
18:29 92.3 °F 65.9 °F 29.77 in NW 1.2 mph 1.2 mph 42 % 0.00 in
18:34 91.8 °F 66.1 °F 29.77 in Calm   0.2 mph 43 % 0.00 in
18:39 91.5 °F 66.5 °F 29.77 in NW 1.2 mph 1.2 mph 44 % 0.00 in
18:40 91.5 °F 66.5 °F 29.77 in NW 1.0 mph   44 % 0.00 in
18:45 91.4 °F 65.8 °F 29.77 in NW 2.3 mph 2.3 mph 43 % 0.00 in
18:50 91.1 °F 65.5 °F 29.77 in WNW 1.2 mph 1.2 mph 43 % 0.00 in
18:55 90.8 °F 65.9 °F 29.77 in NW 1.2 mph 1.2 mph 44 % 0.00 in
19:00 90.7 °F 66.4 °F 29.77 in NW 1.2 mph   45 % 0.00 in
19:05 90.6 °F 66.3 °F 29.77 in Calm     45 % 0.00 in
19:10 90.6 °F 66.3 °F 29.77 in Calm     45 % 0.00 in
19:15 90.5 °F 66.3 °F 29.77 in Calm     45 % 0.00 in
19:20 90.5 °F 66.3 °F 29.77 in West 1.2 mph   45 % 0.00 in
19:25 90.4 °F 66.2 °F 29.77 in Calm     45 % 0.00 in
19:30 90.4 °F 66.2 °F 29.78 in West 1.2 mph 1.2 mph 45 % 0.00 in
19:35 90.4 °F 66.2 °F 29.78 in NW 1.2 mph 1.2 mph 45 % 0.00 in
19:40 90.5 °F 64.9 °F 29.78 in NW 1.2 mph 1.2 mph 43 % 0.00 in
19:45 90.4 °F 65.5 °F 29.78 in Calm     44 % 0.00 in
19:50 90.2 °F 65.3 °F 29.78 in Calm     44 % 0.00 in
19:55 89.9 °F 65.7 °F 29.78 in Calm     45 % 0.00 in
20:00 89.6 °F 64.8 °F 29.78 in Calm     44 % 0.00 in
20:05 89.4 °F 65.9 °F 29.78 in West 1.2 mph   46 % 0.00 in
20:11 89.0 °F 65.5 °F 29.78 in Calm     46 % 0.00 in
20:16 88.4 °F 65.0 °F 29.78 in Calm     46 % 0.00 in
20:21 88.1 °F 65.3 °F 29.78 in Calm     47 % 0.00 in
20:23 87.9 °F 67.5 °F 29.78 in Calm     51 % 0.00 in
20:28 87.4 °F 67.6 °F 29.78 in Calm     52 % 0.00 in
20:29 87.2 °F 67.4 °F 29.78 in Calm     52 % 0.00 in
20:34 86.5 °F 67.3 °F 29.78 in Calm     53 % 0.00 in
20:39 85.7 °F 67.1 °F 29.79 in West 1.2 mph   54 % 0.00 in
20:44 85.5 °F 68.0 °F 29.79 in Calm     56 % 0.00 in
20:49 85.2 °F 67.7 °F 29.79 in Calm     56 % 0.00 in
20:54 84.8 °F 68.9 °F 29.79 in Calm     59 % 0.00 in
20:59 84.3 °F 69.4 °F 29.80 in Calm     61 % 0.00 in
21:04 83.4 °F 69.5 °F 29.80 in Calm     63 % 0.00 in
21:09 82.8 °F 69.8 °F 29.79 in Calm     65 % 0.00 in
21:14 82.4 °F 70.3 °F 29.79 in Calm     67 % 0.00 in
21:19 82.1 °F 69.6 °F 29.80 in Calm     66 % 0.00 in
21:24 81.9 °F 69.4 °F 29.80 in Calm     66 % 0.00 in
21:29 81.6 °F 69.1 °F 29.81 in Calm     66 % 0.00 in
21:30 81.5 °F 69.0 °F 29.81 in Calm     66 % 0.00 in
21:35 81.3 °F 68.9 °F 29.81 in Calm     66 % 0.00 in
21:36 81.3 °F 68.9 °F 29.81 in Calm     66 % 0.00 in
21:41 81.0 °F 68.6 °F 29.81 in Calm     66 % 0.00 in
21:46 80.8 °F 68.4 °F 29.81 in Calm     66 % 0.00 in
21:51 80.7 °F 68.7 °F 29.80 in Calm     67 % 0.00 in
21:56 80.3 °F 68.3 °F 29.80 in Calm     67 % 0.00 in
22:01 79.9 °F 68.4 °F 29.80 in Calm     68 % 0.00 in
22:06 79.7 °F 68.2 °F 29.80 in Calm     68 % 0.00 in
22:11 79.6 °F 68.5 °F 29.81 in Calm     69 % 0.00 in
22:16 79.4 °F 68.3 °F 29.81 in Calm     69 % 0.00 in
22:21 79.3 °F 67.8 °F 29.81 in Calm     68 % 0.00 in
22:26 79.4 °F 67.9 °F 29.81 in Calm     68 % 0.00 in
22:31 79.4 °F 67.9 °F 29.81 in Calm     68 % 0.00 in
22:36 79.3 °F 68.2 °F 29.81 in Calm     69 % 0.00 in
22:41 79.1 °F 68.1 °F 29.81 in Calm     69 % 0.00 in
22:46 78.8 °F 67.8 °F 29.81 in Calm     69 % 0.00 in
22:51 78.5 °F 67.9 °F 29.81 in Calm     70 % 0.00 in
22:56 78.3 °F 67.7 °F 29.81 in Calm     70 % 0.00 in
23:01 78.1 °F 67.9 °F 29.81 in Calm     71 % 0.00 in
23:06 77.7 °F 67.5 °F 29.81 in Calm     71 % 0.00 in
23:11 77.5 °F 67.8 °F 29.81 in Calm     72 % 0.00 in
23:16 77.5 °F 67.8 °F 29.82 in Calm     72 % 0.00 in
23:21 77.5 °F 67.8 °F 29.81 in Calm     72 % 0.00 in
23:26 77.5 °F 67.8 °F 29.81 in Calm     72 % 0.00 in
23:31 77.4 °F 68.1 °F 29.81 in Calm     73 % 0.00 in
23:36 77.2 °F 67.9 °F 29.81 in Calm     73 % 0.00 in
23:41 77.0 °F 67.7 °F 29.81 in Calm     73 % 0.00 in
23:46 77.0 °F 67.7 °F 29.82 in Calm     73 % 0.00 in
23:51 76.9 °F 67.6 °F 29.82 in Calm     73 % 0.00 in
23:56 76.7 °F 67.8 °F 29.82 in Calm     74 % 0.00 in
Park Place, Exeter, Tulare County, California, USA
Compliments of Weather Underground - 2.75 mb